STARLINK-3864, 52468

Orbit data source: Space-Track

STARLINK-3864, 52468 is a payload satellite owned by SpaceX/Seattle (US) in LEO that was launched on Fri, 06 May 2022 UTC via an FALCON 9 launch vehicle from the Air Force Eastern Test Range (AFETR). Payload-class satellites include a variety of spacecraft equipped with specific instruments for various scientific and technological missions. These include communications satellites like Starlink; space stations such as the ISS; scientific satellites like the Hubble; Earth observation satellites from companies like Planet Labs, Umbra, and HawkEye 360; GPS; miniature CubeSats for education and research; and military/defense satellites.

Loading next visibility...
Identifier
52468, 2022-049T
Orbit
LEO
Country
Flag of USUS
Related business
Manufacturer
SpaceX/Seattle
Mission
Operational Commercial Communications
Bus & Motor
STARLINK, Unknown motor
Mass
297 kg wet, ~220 kg dry
Launch date (UTC)
2022-05-06 (4 years ago)
Launch vehicle
FALCON 9
Launch site
Air Force Eastern Test Range (AFETR)
Object type
Payload
Rocket body
Debris
Shape & HBR
Box + 1 Pan, 10.1 m
Radar Cross Section
13.562 m², Large (>1 m²)

Expand to show TLE details & history
Last TLE update: 1 day ago

TLE from 1 day ago
0 STARLINK-3864
1 52468U 22049T   26227.82085286  .00004584  00000-0  15061-3 0  9997
2 52468  53.1598  60.7588 0001104  82.3602 277.7525 15.33553020236327
Epoch: 2026-08-15T19:42Z
TLE epoch observation values (Epoch: 2026-08-15T19:42:01.687Z)
Latitude
-0.00005°
Longitude
161.0255°
Altitude
466.021 km
Speed
7.635 km/s
True Right ascension
04h 03m 02s
True Declination
0° 00' 00"
Sunlit
Object was in daylight at epoch
Visualization orbit readout
Latitude
Unknown
Longitude
Unknown
Altitude
Unknown
Speed
Unknown
Apparent Right ascension
Unknown
Apparent Declination
Unknown
Sunlit
N/A
Visualization observer readout
Local Sidereal Time
16:30:40
Azimuth
Unknown
Elevation
Unknown
Doppler factor
Unknown
Orbital elements
Apogee altitude
466.234 km
Perigee altitude
464.723 km
Semi-major axis
6,843.616 km
Eccentricity
0.00011
Inclination
53.1598°
RAAN
60.7588°
Arg. of periapsis
82.3602°
True anomaly
277.73996°
Mean anomaly
277.7525°
Eccentric anomaly
277.74623°
Mean motion
3.83367 °/min
Orbital period
93.9 mins
BSTAR
0.00015061
Loading maneuver chart data...
Computing Atmospheric mass density...
Loading historical data...
Loading historical data...
Loading historical data...
Loading historical data...
Loading historical data...
Loading historical data...
Loading historical data...

Documentation

Showing up to 5 results
|